EUTELSAT 7B

Last updated on Jan. 15, 2021, 6:31 a.m. UTC

1 39163U 13022A   21014.88938203  .00000041  00000-0  00000-0 0  9994
2 39163   0.0650   0.8273 0005103 334.5709 106.3033  1.00272376 28133
UTC
Height (km)
Latitude
Longitude
Inclination
Orbital Period
UTC large
Height (km)
Speed (km/s)
/
Latitude / Longitude
Inclination (degrees)
Orbital Period (minutes)
Azimuth
Elevation
Range (km)
Doppler Factor
iOS Compass Heading
iOS Angle

Next 30 passes for location: Hong Kong

Rise time Rise Azimuth (degrees) Set time Set Azimuth (degrees) Duration Max altitude (degrees)

No matching passes for this satellites